Estherville, IA

3:35 PM CDT on May 28, 2017 (GMT -0500)
Estherville Municipal

Weather History for KEST - December, 2012

Change the Weather History Date:

Friday, December 14, 2012

  Actual Average Record
Temperature  
Mean Temperature 34 °F 19 °F  
Max Temperature 52 °F 28 °F 55 °F (1998)
Min Temperature 16 °F 10 °F -18 °F (1989)
Degree Days  
Heating Degree Days 31 46  
Month to date heating degree days 472 610  
Since 1 July heating degree days 2078 2329  
Cooling Degree Days 0 0  
Month to date cooling degree days 0 0  
Year to date cooling degree days 886 593  
Moisture  
Dew Point 25 °F    
Average Humidity 67    
Maximum Humidity 92    
Minimum Humidity 41    
Precipitation  
Precipitation 0.00 in 0.01 in 1.22 in (2015)
Month to date precipitation 0.21 0.52  
Sea Level Pressure  
Sea Level Pressure 29.91 in    
Wind  
Wind Speed 10 mph (SE)    
Max Wind Speed 22 mph    
Max Gust Speed 26 mph    
Visibility 9 miles    
Events      
T = Trace of Precipitation, MM = Missing Value Source: NWS Daily Summary

Daily Weather History Graph

Daily Weather History Graph

Search for Another Location

Airport or City:

Trip Planner

Search our weather history database for the weather conditions in past years. The results will help you decide how hot, cold, wet, or windy it might be!

Date:

Astronomy

Dec. 14, 2012 Rise Set
Actual Time 7:44 AM CST 4:43 PM CST
Civil Twilight 7:11 AM CST 5:16 PM CST
Nautical Twilight 6:35 AM CST 5:52 PM CST
Astronomical Twilight 6:00 AM CST 6:27 PM CST
Moon 8:48 AM CST (12/14) 6:39 PM CST (12/14)
Length of Visible Light 10h 04m
Length of Day
8h 59m
Waxing Crescent, 3% of the Moon is Illuminated
Dec 14
Waxing Crescent
Dec 19
First Quarter
Dec 28
Full
Jan 4
Last Quarter
Jan 11
New

Hourly Weather History & Observations

Time (CST) Temp. Windchill Dew Point Humidity Pressure Visibility Wind Dir Wind Speed Gust Speed Precip Events Conditions
1:52 AM 18.0 °F 12.7 °F 15.1 °F 88% 30.14 in 6.0 mi NE 3.5 mph - N/A   Clear
2:52 AM 17.1 °F 11.7 °F 14.0 °F 88% 30.13 in 6.0 mi East 3.5 mph - N/A   Clear
3:52 AM 18.0 °F - 12.9 °F 81% 30.12 in 6.0 mi Calm Calm - N/A   Haze
4:52 AM 17.1 °F - 14.0 °F 88% 30.11 in 6.0 mi Calm Calm - N/A   Clear
5:52 AM 16.0 °F - 12.9 °F 88% 30.09 in 6.0 mi Calm Calm - N/A   Clear
6:52 AM 18.0 °F - 14.0 °F 84% 30.09 in 6.0 mi Calm Calm - N/A   Clear
7:52 AM 19.0 °F 11.1 °F 15.1 °F 85% 30.07 in 5.0 mi SE 5.8 mph - N/A   Clear
8:52 AM 24.1 °F 16.0 °F 19.9 °F 84% 30.05 in 5.0 mi SE 6.9 mph - N/A   Clear
9:52 AM 30.0 °F 22.4 °F 25.0 °F 82% 30.03 in 7.0 mi SSE 8.1 mph - N/A   Clear
10:52 AM 39.0 °F 30.6 °F 26.1 °F 60% 30.02 in 10.0 mi SSE 15.0 mph - N/A   Clear
11:52 AM 44.1 °F 37.4 °F 26.1 °F 49% 29.97 in 10.0 mi SSE 13.8 mph - N/A   Clear
12:52 PM 48.0 °F - 26.1 °F 42% 29.92 in 10.0 mi SSE 15.0 mph - N/A   Clear
1:52 PM 48.0 °F - 27.0 °F 44% 29.87 in 10.0 mi SE 13.8 mph - N/A   Clear
2:52 PM 51.1 °F - 28.9 °F 43% 29.85 in 10.0 mi SSE 20.7 mph 26.5 mph N/A   Clear
3:52 PM 46.0 °F 39.6 °F 28.9 °F 51% 29.84 in 10.0 mi SSE 15.0 mph - N/A   Clear
4:52 PM 44.1 °F 36.8 °F 28.9 °F 55% 29.84 in 10.0 mi SSE 16.1 mph - N/A   Clear
5:52 PM 42.1 °F 33.9 °F 28.0 °F 58% 29.85 in 10.0 mi SSE 17.3 mph - N/A   Clear
6:52 PM 41.0 °F 32.8 °F 28.9 °F 62% 29.82 in 10.0 mi SE 16.1 mph - N/A   Clear
7:52 PM 42.1 °F 33.9 °F 30.0 °F 62% 29.81 in 10.0 mi SSE 17.3 mph - N/A   Mostly Cloudy
8:27 PM 42.8 °F 34.5 °F 30.2 °F 61% 29.76 in 10.0 mi SSE 18.4 mph - N/A   Overcast
8:52 PM 43.0 °F 35.4 °F 30.0 °F 60% 29.79 in 10.0 mi SSE 16.1 mph - N/A   Overcast
9:05 PM 42.8 °F 34.8 °F 30.2 °F 61% 29.74 in 10.0 mi SSE 17.3 mph - N/A   Overcast
9:52 PM 42.1 °F 34.2 °F 30.9 °F 65% 29.75 in 10.0 mi SSE 16.1 mph - N/A   Scattered Clouds
10:52 PM 42.1 °F 35.2 °F 30.9 °F 65% 29.72 in 10.0 mi SSE 12.7 mph - N/A   Overcast
11:18 PM 42.8 °F 36.2 °F 32.0 °F 66% 29.69 in 10.0 mi SSE 12.7 mph - N/A   Overcast
11:52 PM 43.0 °F 36.0 °F 32.0 °F 65% 29.69 in 10.0 mi SSE 13.8 mph - N/A   Overcast